Weather History for Kirksville, MO

Change the Weather History Date:

Sunday, March 3, 2013

  Actual Average Record
Temperature  
Mean Temperature 19 °F 35 °F  
Max Temperature 30 °F 45 °F 79 °F (1983)
Min Temperature 8 °F 26 °F -7 °F (2014)
Degree Days  
Heating Degree Days 46 30  
Month to date heating degree days 129 91  
Since 1 July heating degree days 4509 4624  
Cooling Degree Days 0 0  
Month to date cooling degree days 0 0  
Year to date cooling degree days 0 0  
Moisture  
Dew Point 17 °F    
Average Humidity 78    
Maximum Humidity 92    
Minimum Humidity 63    
Precipitation  
Precipitation 0.02 in 0.08 in 1.11 in (1985)
Month to date precipitation 0.03 0.24  
Year to date precipitation 5.48 3.04  
Sea Level Pressure  
Sea Level Pressure 30.08 in    
Wind  
Wind Speed 8 mph (SE)    
Max Wind Speed 16 mph    
Max Gust Speed 21 mph    
Visibility 9 miles    
Events Rain    
T = Trace of Precipitation, MM = Missing Value Source: NWS Daily Summary

Daily Weather History Graph

Daily Weather History Graph

Search for Another Location

Airport:

Trip Planner

Search our weather history database for the weather conditions in past years. The results will help you decide how hot, cold, wet, or windy it might be!

Date:

Astronomy

Mar. 03, 2013 Rise Set
Actual Time 6:40 AM CST 6:04 PM CST
Civil Twilight 6:13 AM CST 6:31 PM CST
Nautical Twilight 5:41 AM CST 7:03 PM CST
Astronomical Twilight 5:10 AM CST 7:34 PM CST
Moon No Moon Rise 9:55 AM CST (3/3)
Length of Visible Light 12h 18m
Length of Day
11h 24m
Waning Gibbous, 63% of the Moon is Illuminated
Mar 3
Waning Gibbous
Mar 4
Last Quarter
Mar 11
New
Mar 19
First Quarter
Mar 27
Full

Hourly Weather History & Observations

Time (CST) Temp. Windchill Dew Point Humidity Pressure Visibility Wind Dir Wind Speed Gust Speed Precip Events Conditions
12:55 AM 14.0 °F - 10.0 °F 84% 30.24 in 10.0 mi Calm Calm - N/A   Overcast
1:55 AM 14.0 °F - 10.0 °F 84% 30.24 in 10.0 mi Calm Calm - N/A   Overcast
2:55 AM 15.1 °F - 10.9 °F 84% 30.20 in 10.0 mi Calm Calm - N/A   Scattered Clouds
3:55 AM 12.0 °F - 9.0 °F 88% 30.19 in 7.0 mi Calm Calm - N/A   Mostly Cloudy
4:55 AM 12.9 °F - 10.9 °F 92% 30.18 in 6.0 mi Calm Calm - N/A   Mostly Cloudy
5:55 AM 8.6 °F 2.0 °F 6.8 °F 92% 30.13 in 4.0 mi SSW 3.5 mph - N/A   Clear
6:55 AM 12.0 °F 4.1 °F 10.0 °F 92% 30.19 in 4.0 mi SSE 4.6 mph - N/A   Mostly Cloudy
7:55 AM 16.0 °F 7.4 °F 14.0 °F 92% 30.19 in 5.0 mi ESE 5.8 mph - N/A   Overcast
8:55 AM 19.9 °F 13.4 °F 16.0 °F 85% 30.19 in 6.0 mi SE 4.6 mph - N/A   Overcast
9:55 AM 24.1 °F 13.1 °F 17.1 °F 75% 30.17 in 9.0 mi SSE 11.5 mph - N/A   Overcast
10:55 AM 26.1 °F 16.2 °F 18.0 °F 71% 30.16 in 9.0 mi SSE 10.4 mph - N/A   Overcast
11:55 AM 27.0 °F 17.3 °F 18.0 °F 69% 30.14 in 9.0 mi SE 10.4 mph - N/A   Overcast
12:55 PM 28.0 °F 19.3 °F 19.0 °F 69% 30.11 in 10.0 mi SE 9.2 mph - N/A   Overcast
1:55 PM 28.9 °F 19.2 °F 18.0 °F 64% 30.07 in 10.0 mi ESE 11.5 mph - N/A   Overcast
2:55 PM 28.9 °F 19.8 °F 19.0 °F 67% 30.06 in 10.0 mi ESE 10.4 mph - N/A   Overcast
3:55 PM 30.0 °F 19.5 °F 19.0 °F 64% 30.04 in 10.0 mi ESE 13.8 mph - N/A   Mostly Cloudy
4:55 PM 28.9 °F 18.2 °F 17.1 °F 61% 30.03 in 10.0 mi ESE 13.8 mph - N/A   Clear
5:55 PM 28.9 °F 19.2 °F 19.0 °F 67% 30.03 in 10.0 mi ESE 11.5 mph - N/A   Mostly Cloudy
6:55 PM 28.9 °F 18.6 °F 19.9 °F 69% 30.02 in 10.0 mi ESE 12.7 mph - N/A   Scattered Clouds
7:55 PM 28.9 °F 19.2 °F 19.0 °F 67% 30.01 in 10.0 mi ESE 11.5 mph - N/A   Overcast
8:55 PM 28.4 °F 18.5 °F 19.4 °F 69% 29.95 in 10.0 mi ESE 11.5 mph - N/A   Overcast
9:48 PM 30.2 °F 20.8 °F 21.2 °F 69% 29.96 in 7.0 mi ESE 11.5 mph - 0.01 in Rain Light Freezing Rain
9:55 PM 30.0 °F 20.5 °F 23.0 °F 75% 30.00 in 8.0 mi ESE 11.5 mph - 0.01 in Rain Light Freezing Rain
10:10 PM 30.2 °F 20.2 °F 21.2 °F 69% 29.95 in 10.0 mi ESE 12.7 mph - 0.00 in   Overcast
10:21 PM 30.2 °F 20.8 °F 23.0 °F 75% 29.96 in 8.0 mi ESE 11.5 mph - 0.00 in Rain Light Freezing Rain
10:37 PM 30.2 °F 20.8 °F 23.0 °F 75% 29.95 in 9.0 mi ESE 11.5 mph - 0.01 in   Overcast
10:55 PM 30.0 °F 20.5 °F 23.0 °F 75% 29.99 in 10.0 mi ESE 11.5 mph - 0.01 in   Overcast
11:55 PM 30.0 °F 20.5 °F 23.0 °F 75% 29.97 in 10.0 mi ESE 11.5 mph - 0.00 in   Overcast